Weather History for Estherville, IA

Change the Weather History Date:

Sunday, January 9, 2011

  Actual Average Record
Temperature  
Mean Temperature 8 °F 15 °F  
Max Temperature 17 °F 24 °F 54 °F (1958)
Min Temperature -1 °F 7 °F -25 °F (1977)
Degree Days  
Heating Degree Days 57 50  
Month to date heating degree days 470 445  
Since 1 July heating degree days 3363 3588  
Cooling Degree Days 0 0  
Month to date cooling degree days 0 0  
Year to date cooling degree days 0 0  
Moisture  
Dew Point 8 °F    
Average Humidity 84    
Maximum Humidity 95    
Minimum Humidity 73    
Precipitation  
Precipitation 0.00 in 0.01 in 0.15 in (1957)
Month to date precipitation T 0.07  
Year to date precipitation T  
Sea Level Pressure  
Sea Level Pressure 30.26 in    
Wind  
Wind Speed 9 mph (ESE)    
Max Wind Speed 20 mph    
Max Gust Speed 23 mph    
Visibility 5 miles    
Events Snow    
T = Trace of Precipitation, MM = Missing Value Source: NWS Daily Summary

Daily Weather History Graph

Daily Weather History Graph

Search for Another Location

Airport:

Trip Planner

Search our weather history database for the weather conditions in past years. The results will help you decide how hot, cold, wet, or windy it might be!

Date:

Astronomy

Jan. 09, 2011 Rise Set
Actual Time 7:51 AM CST 5:01 PM CST
Civil Twilight 7:18 AM CST 5:33 PM CST
Nautical Twilight 6:43 AM CST 6:09 PM CST
Astronomical Twilight 6:08 AM CST 6:43 PM CST
Moon 10:13 AM CST (1/9) 10:43 PM CST (1/9)
Length of Visible Light 10h 14m
Length of Day
9h 10m
Waxing Crescent, 25% of the Moon is Illuminated
Jan 9
Waxing Crescent
Jan 12
First Quarter
Jan 19
Full
Jan 26
Last Quarter
Feb 2
New

Hourly Weather History & Observations

Time (CST) Temp. Windchill Dew Point Humidity Pressure Visibility Wind Dir Wind Speed Gust Speed Precip Events Conditions
12:52 AM -0.0 °F -7.9 °F -4.0 °F 83% 30.23 in 10.0 mi NNE 3.5 mph - N/A   Clear
1:52 AM -0.9 °F -12.7 °F -4.0 °F 87% 30.24 in 10.0 mi ENE 5.8 mph - N/A   Clear
2:52 AM 1.0 °F - -2.0 °F 87% 30.26 in 10.0 mi Calm Calm - N/A   Clear
3:52 AM 3.0 °F -6.4 °F -0.0 °F 87% 30.25 in 10.0 mi SE 4.6 mph - N/A   Clear
4:52 AM 3.0 °F -4.4 °F -0.0 °F 87% 30.25 in 10.0 mi SE 3.5 mph - N/A   Clear
5:52 AM 1.0 °F -8.7 °F -2.0 °F 87% 30.25 in 10.0 mi East 4.6 mph - N/A   Clear
6:52 AM 1.0 °F -8.7 °F -2.0 °F 87% 30.25 in 10.0 mi ENE 4.6 mph - N/A   Clear
7:52 AM 1.9 °F -7.6 °F -0.9 °F 88% 30.27 in 10.0 mi East 4.6 mph - N/A   Clear
8:52 AM 3.9 °F -5.3 °F 1.0 °F 88% 30.30 in 10.0 mi ESE 4.6 mph - N/A   Partly Cloudy
9:52 AM 6.1 °F -7.8 °F 1.9 °F 83% 30.32 in 10.0 mi SSE 9.2 mph - N/A   Mostly Cloudy
10:52 AM 10.0 °F -1.9 °F 5.0 °F 80% 30.33 in 10.0 mi SSE 8.1 mph - N/A   Mostly Cloudy
11:52 AM 12.0 °F -1.3 °F 6.1 °F 77% 30.31 in 10.0 mi SE 10.4 mph - N/A   Mostly Cloudy
12:52 PM 12.9 °F 0.7 °F 8.1 °F 81% 30.29 in 10.0 mi ESE 9.2 mph - N/A   Overcast
1:52 PM 15.1 °F 3.3 °F 8.1 °F 74% 30.30 in 10.0 mi East 9.2 mph - N/A   Overcast
2:47 PM 15.8 °F 3.4 °F 8.6 °F 73% 30.22 in 2.5 mi ESE 10.4 mph - 0.00 in Snow Light Snow
2:48 PM 16.0 °F 4.4 °F 9.0 °F 74% 30.31 in 2.5 mi ESE 9.2 mph - 0.00 in Snow Light Snow
3:20 PM 15.8 °F 4.2 °F 10.4 °F 79% 30.22 in 3.0 mi ESE 9.2 mph - 0.00 in Snow Light Snow
3:28 PM 15.8 °F 3.4 °F 10.4 °F 79% 30.22 in 3.0 mi ESE 10.4 mph - 0.00 in Snow Light Snow
3:52 PM 16.0 °F 5.3 °F 10.9 °F 81% 30.31 in 10.0 mi ESE 8.1 mph - 0.00 in   Overcast
4:52 PM 17.1 °F 5.0 °F 10.0 °F 74% 30.31 in 10.0 mi East 10.4 mph - N/A   Mostly Cloudy
5:50 PM 17.6 °F 5.0 °F 10.4 °F 73% 30.22 in 5.0 mi ESE 11.5 mph - 0.00 in Snow Light Snow
5:52 PM 17.1 °F 3.6 °F 10.9 °F 77% 30.31 in 4.0 mi East 12.7 mph - 0.00 in Snow Light Snow
6:04 PM 15.8 °F 2.7 °F 12.2 °F 86% 30.22 in 2.5 mi East 11.5 mph - 0.00 in Snow Light Snow
6:13 PM 15.8 °F 1.4 °F 12.2 °F 86% 30.22 in 1.8 mi East 13.8 mph - 0.00 in Snow Light Snow
6:22 PM 15.8 °F 1.4 °F 12.2 °F 86% 30.22 in 2.0 mi East 13.8 mph - 0.00 in Snow Light Snow
6:35 PM 15.8 °F 2.1 °F 12.2 °F 86% 30.23 in 2.0 mi ESE 12.7 mph - 0.00 in Snow Light Snow
6:52 PM 15.1 °F 0.5 °F 12.0 °F 88% 30.32 in 2.5 mi ESE 13.8 mph - 0.00 in Snow Light Snow
7:02 PM 15.8 °F 0.9 °F 12.2 °F 86% 30.23 in 4.0 mi ESE 15.0 mph - 0.00 in Snow Light Snow
7:52 PM 15.1 °F -0.1 °F 10.9 °F 84% 30.32 in 6.0 mi ESE 15.0 mph - 0.00 in Snow Light Snow
8:50 PM 15.8 °F 0.9 °F 10.4 °F 79% 30.22 in 4.0 mi ESE 15.0 mph - 0.00 in Snow Light Snow
8:52 PM 15.1 °F -0.1 °F 10.9 °F 84% 30.31 in 3.0 mi ESE 15.0 mph - 0.00 in Snow Light Snow
9:33 PM 15.8 °F -0.6 °F 12.2 °F 86% 30.21 in 2.5 mi ESE 18.4 mph - 0.00 in Snow Light Snow
9:41 PM 15.8 °F 0.3 °F 12.2 °F 86% 30.21 in 2.0 mi ESE 16.1 mph - 0.00 in Snow Light Snow
9:44 PM 15.8 °F 0.3 °F 12.2 °F 86% 30.21 in 1.8 mi ESE 16.1 mph - 0.00 in Snow Light Snow
9:52 PM 15.1 °F -1.6 °F 12.0 °F 88% 30.29 in 2.5 mi ESE 18.4 mph - 0.00 in Snow Light Snow
10:12 PM 15.8 °F 0.3 °F 12.2 °F 86% 30.21 in 3.0 mi ESE 16.1 mph - 0.00 in Snow Light Snow
10:19 PM 15.8 °F -0.2 °F 12.2 °F 86% 30.21 in 2.5 mi ESE 17.3 mph - 0.00 in Snow Light Snow
10:42 PM 15.8 °F 0.9 °F 12.2 °F 86% 30.22 in 3.0 mi ESE 15.0 mph - 0.00 in Snow Light Snow
10:49 PM 15.8 °F 1.4 °F 12.2 °F 86% 30.22 in 3.0 mi ESE 13.8 mph - 0.00 in Snow Light Snow
10:52 PM 15.1 °F 1.1 °F 12.9 °F 91% 30.30 in 2.5 mi ESE 12.7 mph - 0.00 in Snow Light Snow
11:09 PM 15.8 °F 2.1 °F 12.2 °F 86% 30.23 in 3.0 mi ESE 12.7 mph - 0.00 in Snow Light Snow
11:20 PM 15.8 °F 2.1 °F 12.2 °F 86% 30.23 in 2.5 mi East 12.7 mph - 0.00 in Snow Light Snow
11:47 PM 15.8 °F 2.7 °F 12.2 °F 86% 30.24 in 1.5 mi East 11.5 mph - 0.00 in Snow Light Snow
11:52 PM 15.1 °F 1.1 °F 12.9 °F 91% 30.32 in 1.5 mi ESE 12.7 mph - 0.00 in Snow Light Snow